STARLINK-5133, 53980

Orbit data source: Space-Track

STARLINK-5133, 53980 is a payload satellite owned by SpaceX/Seattle (US) in LEO that was launched on Wed, 05 Oct 2022 UTC via an FALCON 9 launch vehicle from the Air Force Western Test Range (AFWTR). Payload-class satellites include a variety of spacecraft equipped with specific instruments for various scientific and technological missions. These include communications satellites like Starlink; space stations such as the ISS; scientific satellites like the Hubble; Earth observation satellites from companies like Planet Labs, Umbra, and HawkEye 360; GPS; miniature CubeSats for education and research; and military/defense satellites.

Loading next visibility...
Identifier
53980, 2022-125S
Orbit
LEO
Country
Flag of USUS
Related business
Manufacturer
SpaceX/Seattle
Mission
Operational Commercial Communications
Bus & Motor
STARLINK, Unknown motor
Mass
305 kg wet, ~290 kg dry
Launch date (UTC)
2022-10-05 (4 years ago)
Launch vehicle
FALCON 9
Launch site
Air Force Western Test Range (AFWTR)
Object type
Payload
Rocket body
Debris
Shape & HBR
Box + 1 Pan, 10.1 m
Radar Cross Section
13.562 m², Large (>1 m²)

Expand to show TLE details & history
Last TLE update: 3 days ago

TLE from 3 days ago
0 STARLINK-5133
1 53980U 22125S   26170.15211948 -.00000585  00000-0 -18680-4 0  9991
2 53980  53.1604 123.2529 0001468  89.7243 270.3916 15.08834239204717
Epoch: 2026-06-19T03:39Z
TLE epoch observation values (Epoch: 2026-06-19T03:39:03.123Z)
Latitude
-0.00005°
Longitude
161.10465°
Altitude
540.646 km
Speed
7.593 km/s
True Right ascension
08h 13m 00s
True Declination
0° 00' 00"
Sunlit
Object was in daylight at epoch
Visualization orbit readout
Latitude
Unknown
Longitude
Unknown
Altitude
Unknown
Speed
Unknown
Apparent Right ascension
Unknown
Apparent Declination
Unknown
Sunlit
N/A
Visualization observer readout
Local Sidereal Time
21:32:10
Azimuth
Unknown
Elevation
Unknown
Doppler factor
Unknown
Orbital elements
Apogee altitude
541.031 km
Perigee altitude
538.999 km
Semi-major axis
6,918.152 km
Eccentricity
0.00015
Inclination
53.1604°
RAAN
123.2529°
Arg. of periapsis
89.7243°
True anomaly
270.37478°
Mean anomaly
270.3916°
Eccentric anomaly
270.38319°
Mean motion
3.77188 °/min
Orbital period
95.44 mins
BSTAR
-0.00001868
Loading maneuver chart data...
Computing Atmospheric mass density...
Loading historical data...
Loading historical data...
Loading historical data...
Loading historical data...
Loading historical data...
Loading historical data...
Loading historical data...

Documentation

Showing up to 5 results
|